Regional Weather Roundup
Issued by NWS Binghamton, NY

Home | Current Version | Previous Version | Text Only | Print | Product List | Glossary On
Versions: 1 2 3 4 5 6 7 8 9 10 11 12 13 14 15 16 17 18 19 20 21 22 23 24 25 26 27 28 29 30 31 32 33 34 35 36 37 38 39 40 41 42 43 44 45 46 47 48
000
ASUS41 KBGM 220910
RWRBGM
RWRBGM
BINGHAMTON REGIONAL WEATHER ROUNDUP
NATIONAL WEATHER SERVICE BINGHAMTON NY
400 AM EST MON DEC 22 2014

Note: "fair" indicates few or no clouds below 12,000 feet with no
significant weather and/or obstructions to visibility.

* = Station(s) that does not report precipitation, such as rain,
snow, etc, also no thunder or fog.

!NYZ009-015>018-022>025-036-037-044>046-055>057-062-221000
...CENTRAL NEW YORK...

CITY           SKY/WX    TMP DP  RH WIND       PRES   REMARKS
BINGHAMTON     CLOUDY    27  22  81 CALM      30.23F
CORTLAND       CLOUDY    30  27  86 CALM      30.27F
DANSVILLE      CLEAR     26  20  77 S3        30.24F
ELMIRA         CLEAR     25  20  81 CALM      30.26F
ITHACA         CLOUDY    28  23  81 S9        30.27F WCI  19
HAMILTON       CLOUDY    30  25  80 CALM      30.28F
MONTICELLO     CLOUDY    28  27  93 E3        30.28F
NORWICH        CLOUDY    28  25  86 CALM      30.29S
ONEONTA        CLOUDY    27  25  93 CALM      30.24F
PENN YAN       PTCLDY    27  20  75 SE7       30.25F WCI  19
ROME           CLOUDY    29  23  78 E6        30.35S WCI  23
SIDNEY         CLOUDY    28  28 100 CALM      30.29S
SYRACUSE       CLOUDY    30  24  78 E5        30.31F WCI  25
$$

!PAZ038>040-043-044-047-048-072-221000
...NORTHEAST PENNSYLVANIA...

CITY           SKY/WX    TMP DP  RH WIND       PRES   REMARKS
HAZLETON       CLOUDY    30  27  86 SE3       30.26F
SCRANTON       CLOUDY    30  22  72 CALM      30.28F
TOWANDA*       CLOUDY    25  19  80 SW6       30.30F WCI  18
$$
&&
KEY
WCI = WIND CHILL INDEX
VSB = VISIBILITY
HX  = HEAT INDEX
$$


USA.gov is the U.S. government's official web portal to all federal, state and local government web resources and services.